COSMOS 1579 COOLANT, 26517

Orbit data source: Space-Track

COSMOS 1579 COOLANT, 26517 is space debris in LEO originally from a launch on Fri, 29 Jun 1984 UTC launched from the Tyuratam Missile And Space Complex (TTMTR). Debris objects in space refer to the collection of defunct objects orbiting the Earth. Examples of debris include non-operational satellites, rocket bodies, and fragments generated from explosions, collisions, or faulty payload assembly.

Loading next visibility...
Identifier
26517, 1984-069J
Orbit
LEO
Country
Flag of CISCIS
Related business
Manufacturer
Unknown
Mission
Spacecraft
Bus & Motor
Unknown
Mass
Unknown
Launch date (UTC)
1984-06-29 (41 years ago)
Launch vehicle
Unknown
Launch site
Tyuratam Missile And Space Complex (TTMTR)
Object type
Payload
Rocket body
Debris
Shape & HBR
Unknown shape, 0.1 m
Radar Cross Section
Small (<0.1 m²)

Expand to show TLE details & history
Last TLE update: 3 days ago

TLE from 3 days ago
0 COSMOS 1579 COOLANT
1 26517U 84069J   25290.09454924  .00000207  00000-0  23488-3 0  9990
2 26517  65.0503 178.8487 0029164  92.5479 337.3353 13.91112590621539
Epoch: 2025-10-17T02:16Z
TLE epoch observation values (Epoch: 2025-10-17T02:16:09.054Z)
Latitude
58.40351°
Longitude
167.7627°
Altitude
913.972 km
Speed
7.411 km/s
True Right ascension
15h 10m 34s
True Declination
58° 15' 11"
Sunlit
Object was in daylight at epoch
Visualization orbit readout
Latitude
Unknown
Longitude
Unknown
Altitude
Unknown
Speed
Unknown
Apparent Right ascension
Unknown
Apparent Declination
Unknown
Sunlit
N/A
Visualization observer readout
Local Sidereal Time
12:24:05
Azimuth
Unknown
Elevation
Unknown
Doppler factor
Unknown
Orbital elements
Apogee altitude
944.627 km
Perigee altitude
902.039 km
Semi-major axis
7,301.47 km
Eccentricity
0.00292
Inclination
65.0503°
RAAN
178.8487°
Arg. of periapsis
92.5479°
True anomaly
337.20609°
Mean anomaly
337.3353°
Eccentric anomaly
337.27074°
Mean motion
3.47879 °/min
Orbital period
103.48 mins
BSTAR
0.00023488
Loading maneuver chart data...
Computing Atmospheric mass density...

Documentation

Showing up to 5 results
|